Regional Weather Roundup
Issued by NWS

Home | Current Version | Previous Version | Text Only | Print | Product List | Glossary On
Versions: 1 2 3 4 5 6 7 8 9 10 11 12 13 14 15 16 17 18 19 20 21 22 23 24 25 26 27 28
000
ASUS44 KJAN 270110
RWRMS

MISSISSIPPI HOURLY WEATHER ROUNDUP
NATIONAL WEATHER SERVICE JACKSON MS
800 PM CDT THU APR 26 2018

NOTE: "FAIR: INDICATES FEW OR NO CLOUDS BELOW 12,000 FEET WITH NO
SIGNIFICANT WEATHER AND/OR OBSTRUCTIONS TO VISIBILITY.

MSZ001>002-007>008-010>013-018>021-025>028-034>036-270200-
NORTHWEST MISSISSIPPI

CITY           SKY/WX    TMP DP  RH WIND       PRES   REMARKS
BATESVILLE       N/A    N/A N/A N/A MISG        N/A
CLARKSDALE     CLEAR     59  59 100 N6        29.92R
CLEVELAND      MOCLDY    61  57  87 N6        29.92R
GREENWOOD      CLOUDY    61  55  81 NW5       29.91R
GREENVILLE     MOCLDY    61  54  77 N5        29.92R
OLIVE BRANCH   PTCLDY    55  55 100 CALM      29.90R
OXFORD         CLOUDY    57  55  94 N5        29.91S
TUNICA           N/A     55  52  88 NW6       29.93R
WINONA         CLOUDY    59  56  91 NW5       29.90R
$$

MSZ003>006-009-014>017-022>024-029>033-037>039-270200-
NORTHEAST MISSISSIPPI

CITY           SKY/WX    TMP DP  RH WIND       PRES   REMARKS
ABERDEEN         N/A     61  61 100 N7        29.87R
COLUMBUS AFB   LGT RAIN  61  59  94 NW7       29.85S
CORINTH        FAIR      57  55  94 CALM      29.89R
GOLDN TRIANGLE CLOUDY    61  55  82 NW6       29.87R
STARKVILLE     MOCLDY    59  54  82 NW3       29.88R
TUPELO         CLOUDY    60  55  83 N12       29.88R
$$

MSZ040-058-270200-
CENTRAL MISSISSIPPI

CITY           SKY/WX    TMP DP  RH WIND       PRES   REMARKS
JACKSON INTL   CLOUDY    61  53  75 NW6       29.90R
JACKSON HAWKNS CLOUDY    61  54  77 NW7       29.92R
MADISON        CLOUDY    59  54  82 CALM      29.91R
MERIDIAN KEY   CLOUDY    62  53  72 SW3       29.89R
MERIDIAN NAS   CLOUDY    61  54  77 W9        29.88S
RAYMOND        CLOUDY    59  57  94 CALM      29.92R
VICKSBURG VKS  CLOUDY    61  55  82 W3        29.94R
$$

MSZ059>079-270200-
SOUTH MISSISSIPPI

CITY           SKY/WX    TMP DP  RH WIND       PRES   REMARKS
COLUMBIA       FAIR      55  54  94 CALM      29.96R
HATTIESBURG    FAIR      61  52  72 NW3       29.91S
LAUREL         CLOUDY    60  52  74 W3        29.91R
MCCOMB         FAIR      59  51  75 NW5       29.92S
NATCHEZ        CLOUDY    60  54  80 CALM      29.94S
PINE BELT      FAIR      59  53  80 W3        29.92R
$$

MSZ080>082-270200-
COASTAL MISSISSIPPI

CITY           SKY/WX    TMP DP  RH WIND       PRES   REMARKS
BAY ST LOUIS   CLEAR     63  52  67 N6        29.89R
BILOXI         FAIR      66  52  60 N15       29.88R
PASCAGOULA     FAIR      65  49  56 N9        29.88R
GULFPORT       FAIR      67  51  56 N15       29.88R
$$

LAZ007>009-015>016-023>026-270200-
NORTHEAST LOUISIANA

CITY           SKY/WX    TMP DP  RH WIND       PRES   REMARKS
BASTROP        FAIR      58  57  98 CALM      29.94S
TALLULAH/VBURG FAIR      58  57  97 W3        29.93S
VIDALIA        CLOUDY    63  51  64 CALM      29.94R
$$




USA.gov is the U.S. government's official web portal to all federal, state and local government web resources and services.